Preview of NWS' New Version of Forecast
This preview is not operational and should not be used for support decisions.

Regional Weather Roundup (RWR)

Issued by National Weather Service (NWS)

                            
000
ASUS43 KBIS 251110
RWRND 

NORTH DAKOTA REGIONAL WEATHER ROUNDUP
NATIONAL WEATHER SERVICE BISMARCK ND
600 AM CDT SUN AUG 25 2019

NOTE: "FAIR" INDICATES FEW OR NO CLOUDS BELOW 12,000 FEET WITH NO
SIGNIFICANT WEATHER AND/OR OBSTRUCTIONS TO VISIBILITY.


NDZ001>003-009>011-017-251200-
NORTHWEST NORTH DAKOTA
  
CITY           SKY/WX    TMP DP  RH WIND       PRES   REMARKS
WILLISTON      CLOUDY    62  58  86 E5        29.70R                  
MINOT          MOCLDY    64  62  93 SE3       29.69F                  
MINOT AFB      MOCLDY    63  63 100 SE7       29.68F                  
$$
 
NDZ018>021-031>035-040>046-251200-
SOUTHWEST NORTH DAKOTA
  
CITY           SKY/WX    TMP DP  RH WIND       PRES   REMARKS
BISMARCK       CLOUDY    65  63  93 E8        29.76S                  
DICKINSON      MOCLDY    61  59  93 S8        29.72R                  
GARRISON         N/A     64  62  93 S15       29.70F                  
HETTINGER ARPT CLEAR     57  55  93 S6        29.79R                  
$$
 
NDZ004>008-012>016-024-026-027-054-251200-
NORTHEAST NORTH DAKOTA
  
CITY           SKY/WX    TMP DP  RH WIND       PRES   REMARKS
GRAND FORKS    LGT RAIN  64  54  69 S15       29.83F                  
GRND FRKS AFB  CLOUDY    63  57  79 S16       29.83S                  
DEVILS LAKE    RAIN      63  61  94 S15       29.78F                  
$$
 
NDZ022-023-025-028>030-036>039-047>053-251200-
SOUTHEAST NORTH DAKOTA
  
CITY           SKY/WX    TMP DP  RH WIND       PRES   REMARKS
FARGO          CLOUDY    63  55  75 SE15G28   29.87F                  
JAMESTOWN      CLOUDY    64  60  87 S15G24    29.81S                  
$$